Hourly Data Report for October 05, 2017

All times are specified in Local Standard Time (LST). Add 1 hour to adjust for Daylight Saving Time where and when it is observed.

POINT ATKINSON
BRITISH COLUMBIA

49°19'49.300" N
123°15'53.000" W
14.00 m
1106200
71037
WSB

Download Data

Hourly Data (October 2017)
Hourly Data Report for October 5, 2017
Temp Definition
°C
Dew Point Temp Definition
°C
Rel Hum Definition
%
Wind Dir Definition
10's deg

Wind Spd Definition
km/h
Visibility Definition
km
Stn Press Definition
kPa
Hmdx Definition


Wind Chill Definition


Weather Definition


TIME
00:00 11.3 5.3 67 8 4   101.91     LegendNANA
01:00 11.0 4.4 63 6 2   101.92     LegendNANA
02:00 10.8 5.3 69 9 5   101.93     LegendNANA
03:00 10.5 6.2 75 7 4   101.95     LegendNANA
04:00 10.4 5.1 70 31 2   101.98     LegendNANA
05:00 10.0 5.8 75 7 5   101.98     LegendNANA
06:00 9.5 5.4 76 7 2   101.97     LegendNANA
07:00 10.8 6.5 75 9 6   102.01     LegendNANA
08:00 11.7 6.8 72 11 3   102.02     LegendNANA
09:00 12.1 7.2 72 12 4   102.02     LegendNANA
10:00 11.5 6.8 73 27 7   102.02     LegendNANA
11:00 12.1 6.7 70 31 13   102.00     LegendNANA
12:00 12.3 9.1 81 27 11   101.95     LegendNANA
13:00 12.5 9.7 83 28 9   101.91     LegendNANA
14:00 13.0 9.8 81 28 7   101.85     LegendNANA
15:00 13.7 10.1 79 28 5   101.78     LegendNANA
16:00 13.4 9.7 78 30 8   101.75     LegendNANA
17:00 14.1 3.9 50 29 10   101.73     LegendNANA
18:00 13.0 4.8 58 0 1   101.72     LegendNANA
19:00 12.8 7.8 72 8 7   101.72     LegendNANA
20:00 12.7 5.9 63   0   101.72     LegendNANA
21:00 11.9 5.6 65 7 2   101.72     LegendNANA
22:00 11.8 6.2 69 8 3   101.73     LegendNANA
23:00 11.5 6.5 71 8 2   101.71     LegendNANA

Notes on Data Quality.

Legend

  • E = Estimated
  • M = Missing
  • NA = Not Available
  • ‡ = Partner data that is not subject to review by the National Climate Archives
Date modified: